Date String (YYYY-MM-DD hh:mm:ss) UTC,Instrument flags,Ambient pressure (hPa),Sample flow (lpm),Bypass flow (lpm),Sample temperature (°C),Ambient temperature (°C),ASC tube jacket temperature (°C),LED temperature (°C),Box temperature (°C),Sample RH (%),Span deviation,Mass concentration (μg/m³),Mass concentration (μg/m³),Mass concentration (μg/m³)
DateTimeUTC,F1_M11,P_M11,Q1_M11,Q2_M11,T1_M11,T2_M11,T3_M11,T4_M11,T5_M11,U1_M11,ZSPAN_M11,X0_M11,X2_M11,X1_M11
2023-05-14 01:00:00,,0838.0,5.01,0.00,30.2,28.5,00.0,38.7,31.7,25.2,0000.0,0004.56,0001.72,0001.25
2023-05-14 01:01:00,,0838.0,4.99,0.00,30.2,28.5,00.0,38.7,31.7,25.2,0000.0,0004.74,0001.77,0001.25
2023-05-14 01:02:00,,0838.0,4.99,0.00,30.2,28.5,00.0,38.7,31.7,25.2,0000.0,0004.71,0001.75,0001.25
2023-05-14 01:03:00,,0838.0,4.99,0.00,30.2,28.5,00.0,38.7,31.7,25.4,0000.0,0004.00,0001.73,0001.26
2023-05-14 01:04:00,,0838.0,4.99,0.00,30.2,28.5,00.0,38.7,31.7,25.3,0000.0,0002.83,0001.70,0001.25
2023-05-14 01:05:00,,0838.0,5.00,0.00,30.2,28.4,00.0,38.7,31.7,25.3,0000.0,0002.68,0001.66,0001.24
2023-05-14 01:06:00,,0838.0,5.01,0.00,30.2,28.4,00.0,38.7,31.7,25.4,0000.0,0002.62,0001.66,0001.25
2023-05-14 01:07:00,,0838.1,5.01,0.00,30.2,28.4,00.0,38.7,31.7,25.4,0000.0,0002.61,0001.68,0001.24
2023-05-14 01:08:00,,0838.2,5.00,0.00,30.2,28.4,00.0,38.6,31.7,25.5,0000.0,0002.57,0001.68,0001.24
2023-05-14 01:09:00,,0838.2,5.00,0.00,30.1,28.4,00.0,38.6,31.7,25.7,0000.0,0002.57,0001.67,0001.24
2023-05-14 01:10:00,,0838.2,4.99,0.00,30.1,28.4,00.0,38.6,31.7,25.6,0000.0,0002.67,0001.71,0001.24
2023-05-14 01:11:00,,0838.2,5.01,0.00,30.1,28.4,00.0,38.6,31.7,25.6,0000.0,0002.85,0001.78,0001.26
2023-05-14 01:12:00,,0838.2,5.00,0.00,30.1,28.4,00.0,38.6,31.6,25.7,0000.0,0002.80,0001.78,0001.28
2023-05-14 01:13:00,,0838.2,4.99,0.00,30.1,28.4,00.0,38.6,31.7,25.8,0000.0,0002.78,0001.79,0001.29
2023-05-14 01:14:00,,0838.2,4.99,0.00,30.1,28.4,00.0,38.6,31.6,25.9,0000.0,0002.83,0001.82,0001.31
2023-05-14 01:15:00,,0838.2,5.01,0.00,30.1,28.4,00.0,38.6,31.6,25.9,0000.0,0002.87,0001.84,0001.32
2023-05-14 01:16:00,,0838.2,5.01,0.00,30.1,28.4,00.0,38.6,31.6,25.9,0000.0,0002.86,0001.86,0001.35
2023-05-14 01:17:00,,0838.2,4.99,0.00,30.1,28.3,00.0,38.6,31.6,25.8,0000.0,0002.84,0001.85,0001.35
2023-05-14 01:18:00,,0838.1,4.99,0.00,30.1,28.3,00.0,38.6,31.6,25.8,0000.0,0002.83,0001.83,0001.36
2023-05-14 01:19:00,,0838.1,5.01,0.00,30.1,28.3,00.0,38.6,31.6,25.8,0000.0,0002.84,0001.82,0001.37
2023-05-14 01:20:00,,0838.1,5.00,0.00,30.1,28.3,00.0,38.6,31.6,25.8,0000.0,0002.82,0001.82,0001.37
2023-05-14 01:21:00,,0838.2,4.99,0.00,30.1,28.4,00.0,38.6,31.6,25.8,0000.0,0002.79,0001.83,0001.38
2023-05-14 01:22:00,,0838.2,4.99,0.00,30.1,28.4,00.0,38.5,31.6,25.9,0000.0,0002.70,0001.82,0001.38
2023-05-14 01:23:00,,0838.2,5.01,0.00,30.1,28.3,00.0,38.5,31.6,25.8,0000.0,0002.77,0001.83,0001.37
2023-05-14 01:24:00,,0838.2,5.00,0.00,30.1,28.3,00.0,38.5,31.6,25.9,0000.0,0002.89,0001.86,0001.37
2023-05-14 01:25:00,,0838.2,5.00,0.00,30.1,28.3,00.0,38.5,31.6,26.0,0000.0,0002.85,0001.84,0001.37
2023-05-14 01:26:00,,0838.2,5.00,0.00,30.0,28.3,00.0,38.5,31.5,25.9,0000.0,0002.79,0001.83,0001.37
2023-05-14 01:27:00,,0838.2,4.99,0.00,30.0,28.2,00.0,38.5,31.5,25.9,0000.0,0002.78,0001.81,0001.36
2023-05-14 01:28:00,,0838.2,4.99,0.00,30.0,28.2,00.0,38.5,31.5,26.0,0000.0,0002.78,0001.80,0001.35
2023-05-14 01:29:00,,0838.2,5.02,0.00,30.0,28.2,00.0,38.5,31.5,26.1,0000.0,0002.73,0001.81,0001.35
2023-05-14 01:30:00,,0838.2,5.00,0.00,30.0,28.2,00.0,38.5,31.5,26.1,0000.0,0002.79,0001.84,0001.35
2023-05-14 01:31:00,,0838.3,4.99,0.00,30.0,28.2,00.0,38.5,31.5,26.2,0000.0,0002.83,0001.86,0001.36
2023-05-14 01:32:00,,0838.2,5.00,0.00,30.0,28.2,00.0,38.5,31.5,26.1,0000.0,0002.94,0001.85,0001.37
2023-05-14 01:33:00,,0838.2,5.01,0.00,30.0,28.3,00.0,38.5,31.5,26.0,0000.0,0002.90,0001.83,0001.36
2023-05-14 01:34:00,,0838.2,5.00,0.00,30.0,28.3,00.0,38.5,31.5,26.1,0000.0,0002.73,0001.77,0001.36
2023-05-14 01:35:00,,0838.2,4.99,0.00,30.0,28.3,00.0,38.4,31.5,26.1,0000.0,0002.52,0001.71,0001.35
2023-05-14 01:36:00,,0838.2,5.00,0.00,30.0,28.3,00.0,38.4,31.5,26.1,0000.0,0002.54,0001.71,0001.34
2023-05-14 01:37:00,,0838.2,5.01,0.00,30.0,28.3,00.0,38.4,31.5,26.1,0000.0,0002.52,0001.69,0001.33
2023-05-14 01:38:00,,0838.2,5.00,0.00,30.0,28.3,00.0,38.4,31.5,26.0,0000.0,0002.53,0001.70,0001.32
2023-05-14 01:39:00,,0838.2,5.00,0.00,30.0,28.3,00.0,38.4,31.5,25.9,0000.0,0002.57,0001.72,0001.32
2023-05-14 01:40:00,,0838.3,4.99,0.00,30.0,28.3,00.0,38.4,31.5,26.0,0000.0,0002.50,0001.70,0001.32
2023-05-14 01:41:00,,0838.3,4.99,0.00,30.0,28.2,00.0,38.4,31.5,26.1,0000.0,0002.44,0001.68,0001.32
2023-05-14 01:42:00,,0838.2,5.00,0.00,29.9,28.2,00.0,38.4,31.5,26.0,0000.0,0002.32,0001.64,0001.30
2023-05-14 01:43:00,,0838.3,5.00,0.00,29.9,28.2,00.0,38.4,31.5,26.1,0000.0,0002.07,0001.58,0001.28
2023-05-14 01:44:00,,0838.3,5.01,0.00,29.9,28.2,00.0,38.4,31.5,26.1,0000.0,0002.01,0001.55,0001.27
2023-05-14 01:45:00,,0838.4,5.01,0.00,29.9,28.2,00.0,38.4,31.5,26.2,0000.0,0002.02,0001.55,0001.26
2023-05-14 01:46:00,,0838.4,5.01,0.00,29.9,28.2,00.0,38.4,31.5,26.2,0000.0,0002.03,0001.55,0001.25
2023-05-14 01:47:00,,0838.4,5.01,0.00,29.9,28.2,00.0,38.4,31.5,26.2,0000.0,0001.94,0001.52,0001.26
2023-05-14 01:48:00,,0838.4,5.02,0.00,29.9,28.3,00.0,38.4,31.5,26.2,0000.0,0001.93,0001.51,0001.26
2023-05-14 01:49:00,,0838.4,4.99,0.00,29.9,28.3,00.0,38.4,31.4,26.3,0000.0,0001.89,0001.49,0001.26
2023-05-14 01:50:00,,0838.5,5.00,0.00,29.9,28.3,00.0,38.4,31.4,26.4,0000.0,0001.81,0001.46,0001.25
2023-05-14 01:51:00,,0838.4,5.01,0.00,29.9,28.2,00.0,38.4,31.4,26.4,0000.0,0001.91,0001.52,0001.26
2023-05-14 01:52:00,,0838.4,4.99,0.00,29.9,28.2,00.0,38.4,31.4,26.3,0000.0,0001.93,0001.53,0001.27
2023-05-14 01:53:00,,0838.3,5.00,0.00,29.9,28.2,00.0,38.4,31.4,26.3,0000.0,0001.99,0001.55,0001.28
2023-05-14 01:54:00,,0838.3,5.01,0.00,29.9,28.1,00.0,38.3,31.4,26.4,0000.0,0002.02,0001.57,0001.30
2023-05-14 01:55:00,,0838.3,5.01,0.00,29.9,28.1,00.0,38.3,31.4,26.4,0000.0,0002.14,0001.62,0001.32
2023-05-14 01:56:00,,0838.3,4.99,0.00,29.9,28.1,00.0,38.3,31.4,26.5,0000.0,0002.39,0001.67,0001.35
2023-05-14 01:57:00,,0838.3,5.01,0.00,29.9,28.1,00.0,38.3,31.4,26.6,0000.0,0002.47,0001.71,0001.37
2023-05-14 01:58:00,,0838.3,5.01,0.00,29.8,28.1,00.0,38.3,31.4,26.5,0000.0,0002.61,0001.75,0001.39
2023-05-14 01:59:00,,0838.3,5.00,0.00,29.8,28.1,00.0,38.3,31.4,26.4,0000.0,0002.56,0001.73,0001.40
